Tracking 30995 objects as of 6-Jul-2025
HD Live streaming from Space Station
objects crossing your sky now

ONEWEB-0510

Track ONEWEB-0510 now!
10-day predictions
ONEWEB-0510 is classified as:


NORAD ID: 54128
Int'l Code: 2022-138R
Perigee: 1,187.9 km
Apogee: 1,189.9 km
Inclination: 87.9 °
Period: 109.0 minutes
Semi major axis: 7559 km
RCS: Unknown
Launch date: October 22, 2022
Source: United Kingdom (UK)
Launch site: SRIHARIKOTA (SRI)
Your satellite tracking list
Your tracking list is empty




NASA's NSSDC Master Catalog

Two Line Element Set (TLE):
1 54128U 22138R   25186.84721238  .00000077  00000-0  15650-3 0  9997
2 54128  87.9274 343.4230 0001375  83.2419 276.8870 13.20774333134460
Source of the keplerian elements: AFSPC